Location: Unspecified
(51.5147°N, 7.4673°E)
Time: 00:33:11
(UTC+02:00)

BlueWalker 3 - Visible Passes

Search period start: 27 March 2023 00:00
Search period end: 06 April 2023 00:00
Orbit: 497 x 515 km, 53.2° (Epoch: 25 March)

Date Brightness Start Highest point End Pass type
(mag) Time Alt. Az. Time Alt. Az. Time Alt. Az.
27 Mar 3.8 20:53:18 10° SSE 20:55:18 14° SE 20:55:50 13° SE visible
27 Mar 4.0 22:29:26 10° SW 22:30:38 19° SW 22:30:38 19° SW visible
28 Mar 3.8 20:33:29 10° SSE 20:35:36 14° SE 20:37:43 10° E visible
28 Mar 2.4 22:09:43 10° SW 22:12:47 45° SSW 22:12:47 45° SSW visible
29 Mar 2.0 21:50:01 10° SW 21:53:51 56° SSE 21:54:38 45° ESE visible
29 Mar 4.5 23:28:32 10° W 23:29:24 16° W 23:29:24 16° W visible
30 Mar 2.0 21:30:17 10° SW 21:34:07 57° SSE 21:36:14 24° E visible
30 Mar 3.5 23:08:49 10° W 23:11:01 31° W 23:11:01 31° W visible
31 Mar 2.0 21:10:33 10° SW 21:14:24 59° SSE 21:17:40 14° ENE visible
31 Mar 2.5 22:49:06 10° W 22:52:25 58° WNW 22:52:25 58° WNW visible
01 Apr 2.0 20:50:48 10° SW 20:54:39 60° SSE 20:58:30 10° ENE visible
01 Apr 2.1 22:29:22 10° W 22:33:16 69° N 22:33:41 62° NE visible
02 Apr 4.9 00:08:07 10° WNW 00:08:26 12° WNW 00:08:26 12° WNW visible
02 Apr 2.1 20:31:02 10° SW 20:34:54 62° SSE 20:38:46 10° ENE visible
02 Apr 2.1 22:09:37 10° W 22:13:32 68° N 22:14:50 38° ENE visible
02 Apr 4.4 23:48:22 10° WNW 23:49:35 19° WNW 23:49:35 19° WNW visible
03 Apr 2.2 21:49:52 10° W 21:53:46 68° N 21:55:55 25° ENE visible
03 Apr 3.7 23:28:36 10° WNW 23:30:39 29° WNW 23:30:39 29° WNW visible
04 Apr 2.2 21:30:06 10° W 21:34:00 68° N 21:36:56 17° ENE visible
04 Apr 2.9 23:08:50 10° WNW 23:11:40 46° WNW 23:11:40 46° WNW visible
05 Apr 2.2 21:10:19 10° W 21:14:13 68° N 21:17:54 11° E visible
05 Apr 2.0 22:49:03 10° WNW 22:52:37 74° WNW 22:52:37 74° WNW visible
